Marco Island Airport, FL

10:11 AM EDT on April 26, 2017 (GMT -0400)
Marco Island

Weather History for KMKY - July, 2013

Change the Weather History Date:

Monday, July 22, 2013

  Actual Average (KAPF) Record (KAPF)
Temperature  
Mean Temperature 83 °F -  
Max Temperature 91 °F 91 °F 95 °F (1956)
Min Temperature 75 °F 72 °F 69 °F (1965)
Cooling Degree Days 18    
Growing Degree Days 33 (Base 50)    
Moisture  
Dew Point 67 °F    
Average Humidity 60    
Maximum Humidity 73    
Minimum Humidity 49    
Precipitation  
Precipitation 0.00 in - - ()
Sea Level Pressure  
Sea Level Pressure 30.11 in    
Wind  
Wind Speed 4 mph ()    
Max Wind Speed 12 mph    
Max Gust Speed 16 mph    
Visibility 9.9 miles    
Events      
Averages and records for this station are not official NWS values.
T = Trace of Precipitation, MM = Missing Value Source: Averaged Metar Reports

Daily Weather History Graph

Daily Weather History Graph

Search for Another Location

Airport or City:

Trip Planner

Search our weather history database for the weather conditions in past years. The results will help you decide how hot, cold, wet, or windy it might be!

Date:

Astronomy

Jul. 22, 2013 Rise Set
Actual Time 6:47 AM EDT 8:18 PM EDT
Civil Twilight 6:22 AM EDT 8:43 PM EDT
Nautical Twilight 5:52 AM EDT 9:13 PM EDT
Astronomical Twilight 5:20 AM EDT 9:45 PM EDT
Moon 8:12 PM EDT (7/22) 6:36 AM EDT (7/22)
Length of Visible Light 14h 20m
Length of Day
13h 30m
Full, 100% of the Moon is Illuminated
Jul 22
Full
Jul 22
Full
Jul 29
Last Quarter
Aug 6
New
Aug 14
First Quarter

Hourly Weather History & Observations

Time (EDT) Temp. Heat Index Dew Point Humidity Pressure Visibility Wind Dir Wind Speed Gust Speed Precip Events Conditions
12:15 AM 78.8 °F - 66.2 °F 65% 30.15 in 10.0 mi ENE 3.5 mph - N/A   Partly Cloudy
12:35 AM 78.8 °F - 66.2 °F 65% 30.14 in 10.0 mi East 4.6 mph - N/A   Mostly Cloudy
12:55 AM 78.8 °F - 66.2 °F 65% 30.13 in 10.0 mi East 3.5 mph - N/A   Partly Cloudy
1:15 AM 78.8 °F - 66.2 °F 65% 30.13 in 10.0 mi Calm Calm - N/A   Partly Cloudy
1:35 AM 78.8 °F - 66.2 °F 65% 30.12 in 10.0 mi Calm Calm - N/A   Mostly Cloudy
1:55 AM 78.8 °F - 66.2 °F 65% 30.12 in 10.0 mi NE 3.5 mph - N/A   Mostly Cloudy
2:15 AM 78.8 °F - 66.2 °F 65% 30.11 in 10.0 mi Calm Calm - N/A   Mostly Cloudy
2:35 AM 78.8 °F - 66.2 °F 65% 30.10 in 10.0 mi East 3.5 mph - N/A   Partly Cloudy
2:55 AM 77.0 °F - 66.2 °F 69% 30.10 in 10.0 mi Calm Calm - N/A   Clear
3:15 AM 78.8 °F - 66.2 °F 65% 30.10 in 10.0 mi Calm Calm - N/A   Clear
3:35 AM 77.0 °F - 66.2 °F 69% 30.09 in 10.0 mi Calm Calm - N/A   Clear
3:55 AM 77.0 °F - 66.2 °F 69% 30.09 in 10.0 mi Calm Calm - N/A   Clear
4:15 AM 77.0 °F - 66.2 °F 69% 30.09 in 10.0 mi ENE 3.5 mph - N/A   Clear
4:35 AM 77.0 °F - 66.2 °F 69% 30.09 in 10.0 mi ENE 4.6 mph - N/A   Clear
4:55 AM 77.0 °F - 66.2 °F 69% 30.09 in 10.0 mi ENE 4.6 mph - N/A   Clear
5:15 AM 77.0 °F - 66.2 °F 69% 30.09 in 10.0 mi ENE 4.6 mph - N/A   Clear
5:35 AM 77.0 °F - 66.2 °F 69% 30.09 in 10.0 mi East 4.6 mph - N/A   Clear
5:55 AM 75.2 °F - 66.2 °F 73% 30.09 in 10.0 mi ENE 3.5 mph - N/A   Clear
6:15 AM 75.2 °F - 66.2 °F 73% 30.10 in 10.0 mi ENE 3.5 mph - N/A   Clear
6:35 AM 75.2 °F - 66.2 °F 73% 30.10 in 10.0 mi East 3.5 mph - N/A   Clear
6:55 AM 75.2 °F - 66.2 °F 73% 30.10 in 10.0 mi Calm Calm - N/A   Clear
7:15 AM 75.2 °F - 66.2 °F 73% 30.11 in 10.0 mi Calm Calm - N/A   Clear
7:35 AM 75.2 °F - 66.2 °F 73% 30.11 in 9.0 mi East 4.6 mph - N/A   Clear
7:55 AM 78.8 °F - 66.2 °F 65% 30.12 in 6.0 mi East 5.8 mph - N/A   Clear
8:15 AM 78.8 °F - 68.0 °F 69% 30.12 in 10.0 mi ESE 5.8 mph - N/A   Clear
8:35 AM 80.6 °F 83.2 °F 68.0 °F 65% 30.13 in 10.0 mi ESE 6.9 mph - N/A   Clear
8:55 AM 80.6 °F 83.2 °F 68.0 °F 65% 30.13 in 10.0 mi SE 6.9 mph - N/A   Clear
9:15 AM 82.4 °F 85.4 °F 68.0 °F 62% 30.14 in 10.0 mi SE 8.1 mph - N/A   Clear
9:35 AM 82.4 °F 85.4 °F 68.0 °F 62% 30.14 in 9.0 mi SSE 8.1 mph - N/A   Scattered Clouds
9:55 AM 82.4 °F 84.6 °F 66.2 °F 58% 30.14 in 10.0 mi SE 6.9 mph - N/A   Scattered Clouds
10:15 AM 82.4 °F 85.4 °F 68.0 °F 62% 30.15 in 10.0 mi SE 5.8 mph - N/A   Scattered Clouds
10:35 AM 84.2 °F 87.3 °F 68.0 °F 58% 30.15 in 10.0 mi SSE 6.9 mph - N/A   Partly Cloudy
10:55 AM 84.2 °F 87.3 °F 68.0 °F 58% 30.15 in 10.0 mi South 5.8 mph - N/A   Scattered Clouds
11:15 AM 86.0 °F 88.2 °F 66.2 °F 51% 30.15 in 10.0 mi SSE 6.9 mph - N/A   Mostly Cloudy
11:35 AM 87.8 °F 91.4 °F 68.0 °F 52% 30.15 in 10.0 mi SSE 9.2 mph - N/A   Mostly Cloudy
11:55 AM 87.8 °F 91.4 °F 68.0 °F 52% 30.15 in 10.0 mi North - - N/A   Scattered Clouds
12:15 PM 89.6 °F 94.7 °F 69.8 °F 52% 30.15 in 10.0 mi South 9.2 mph - N/A   Scattered Clouds
12:35 PM 89.6 °F 94.7 °F 69.8 °F 52% 30.15 in 10.0 mi South 9.2 mph - N/A   Partly Cloudy
12:55 PM 89.6 °F 94.7 °F 69.8 °F 52% 30.14 in 10.0 mi SSE 9.2 mph - N/A   Clear
1:15 PM 89.6 °F 94.7 °F 69.8 °F 52% 30.13 in 10.0 mi North - - N/A   Clear
1:35 PM 89.6 °F 94.7 °F 69.8 °F 52% 30.13 in 10.0 mi South 9.2 mph - N/A   Partly Cloudy
1:55 PM 89.6 °F 94.7 °F 69.8 °F 52% 30.13 in 10.0 mi South 6.9 mph - N/A   Mostly Cloudy
2:15 PM 91.4 °F 96.8 °F 69.8 °F 49% 30.12 in 10.0 mi South 11.5 mph 16.1 mph N/A   Scattered Clouds
2:35 PM 91.4 °F 96.8 °F 69.8 °F 49% 30.12 in 10.0 mi South 9.2 mph - N/A   Clear
2:55 PM 91.4 °F 96.8 °F 69.8 °F 49% 30.11 in 10.0 mi SSW 11.5 mph 16.1 mph N/A   Clear
3:15 PM 89.6 °F 94.7 °F 69.8 °F 52% 30.10 in 10.0 mi SW 9.2 mph - N/A   Partly Cloudy
3:35 PM 89.6 °F 94.7 °F 69.8 °F 52% 30.10 in 10.0 mi SSW 9.2 mph - N/A   Scattered Clouds
3:55 PM 89.6 °F 94.7 °F 69.8 °F 52% 30.09 in 10.0 mi SW 10.4 mph - N/A   Scattered Clouds
4:15 PM 89.6 °F 94.7 °F 69.8 °F 52% 30.09 in 10.0 mi SW 8.1 mph - N/A   Partly Cloudy
4:35 PM 89.6 °F 94.7 °F 69.8 °F 52% 30.09 in 10.0 mi SSW 9.2 mph - N/A   Clear
4:55 PM 89.6 °F 94.7 °F 69.8 °F 52% 30.09 in 10.0 mi SW 6.9 mph - N/A   Clear
5:15 PM 89.6 °F 94.7 °F 69.8 °F 52% 30.09 in 10.0 mi SSW 10.4 mph - N/A   Clear
5:35 PM 87.8 °F 92.6 °F 69.8 °F 55% 30.09 in 10.0 mi SSW 6.9 mph - N/A   Clear
5:55 PM 86.0 °F 89.4 °F 68.0 °F 55% 30.08 in 10.0 mi SSW 6.9 mph - N/A   Clear
6:15 PM 86.0 °F 88.2 °F 66.2 °F 51% 30.09 in 10.0 mi SSW 5.8 mph - N/A   Clear
6:35 PM 86.0 °F 88.2 °F 66.2 °F 51% 30.09 in 10.0 mi SSW 6.9 mph - N/A   Clear
6:55 PM 86.0 °F 88.2 °F 66.2 °F 51% 30.09 in 10.0 mi SW 4.6 mph - N/A   Clear
7:15 PM 86.0 °F 88.2 °F 66.2 °F 51% 30.09 in 10.0 mi SW 4.6 mph - N/A   Clear
7:35 PM 84.2 °F 86.6 °F 66.2 °F 55% 30.09 in 10.0 mi WSW 4.6 mph - N/A   Clear
7:55 PM 84.2 °F 86.6 °F 66.2 °F 55% 30.10 in 10.0 mi West 3.5 mph - N/A   Clear
8:15 PM 84.2 °F 86.6 °F 66.2 °F 55% 30.09 in 10.0 mi West 3.5 mph - N/A   Clear
8:35 PM 82.4 °F 84.6 °F 66.2 °F 58% 30.09 in 10.0 mi WNW 3.5 mph - N/A   Clear
8:55 PM 82.4 °F 84.6 °F 66.2 °F 58% 30.10 in 10.0 mi WNW 3.5 mph - N/A   Clear
9:15 PM 82.4 °F 84.6 °F 66.2 °F 58% 30.11 in 10.0 mi NNW 3.5 mph - N/A   Clear
9:35 PM 82.4 °F 84.6 °F 66.2 °F 58% 30.10 in 10.0 mi Calm Calm - N/A   Clear
9:55 PM 80.6 °F 82.7 °F 66.2 °F 61% 30.10 in 10.0 mi Calm Calm - N/A   Clear
10:15 PM 80.6 °F 82.7 °F 66.2 °F 61% 30.10 in 10.0 mi Calm Calm - N/A   Clear
10:35 PM 80.6 °F 83.2 °F 68.0 °F 65% 30.10 in 10.0 mi Calm Calm - N/A   Clear
10:55 PM 80.6 °F 83.2 °F 68.0 °F 65% 30.11 in 10.0 mi Calm Calm - N/A   Clear
11:15 PM 78.8 °F - 68.0 °F 69% 30.10 in 10.0 mi Calm Calm - N/A   Clear
11:35 PM 78.8 °F - 66.2 °F 65% 30.11 in 10.0 mi Calm Calm - N/A   Clear
11:55 PM 78.8 °F - 66.2 °F 65% 30.11 in 10.0 mi Calm Calm - N/A   Clear